Retour au catalogue

CZ-4C SEP MOTOR COVER

ActifSSO
NORAD 49047·DEBRIS·🇨🇳 China
Ce nom de satellite n'a pas encore été confirmé par des sources officielles.

Lancé Jul 4, 2021 depuis Jiuquan Satellite Launch Center

Loading…

Prochains Passages (prochaines 24 heures)

TLE

FraisSource: Space-Track

Époque: Sep 14, 2026, 06:45 UTC

1 49047U 21062E   26257.28125064  .00000047  00000-0  36980-4 0  9996
2 49047  98.6611 275.9567 0004990 152.0717 208.0733 14.27882675268518

Suivez CZ-4C SEP MOTOR COVER en temps réel avec AllMySat

Download on the App Store